TimeEST,TemperatureF,Dew PointF,Humidity,Sea Level PressureIn,VisibilityMPH,Wind Direction,Wind SpeedMPH,Gust SpeedMPH,PrecipitationIn,Events,Conditions,WindDirDegrees,DateUTC
12:06 AM,15.8,6.8,68,29.86,10.0,North,15.0,26.5,0.00,,Overcast,360,2014-01-22 05:06:00
12:54 AM,15.1,3.0,59,29.85,10.0,North,15.0,-,0.00,,Overcast,350,2014-01-22 05:54:00
1:54 AM,12.9,-0.9,54,29.84,10.0,North,17.3,25.3,N/A,,Overcast,350,2014-01-22 06:54:00
2:54 AM,10.0,-2.0,58,29.84,10.0,NNW,17.3,25.3,N/A,,Overcast,340,2014-01-22 07:54:00
3:54 AM,7.0,-5.1,58,29.86,10.0,North,19.6,-,N/A,,Overcast,350,2014-01-22 08:54:00
4:54 AM,6.1,-6.0,58,29.88,10.0,NNW,19.6,26.5,N/A,,Mostly Cloudy,340,2014-01-22 09:54:00
5:54 AM,5.0,-8.0,55,29.88,10.0,NNW,18.4,29.9,N/A,,Scattered Clouds,340,2014-01-22 10:54:00
6:54 AM,3.2,-9.4,56,29.89,10.0,NNW,18.4,28.8,N/A,,Partly Cloudy,340,2014-01-22 11:54:00
7:54 AM,3.9,-9.0,55,29.89,10.0,NNW,20.7,27.6,N/A,,Partly Cloudy,340,2014-01-22 12:54:00
8:54 AM,5.0,-8.0,55,29.91,10.0,North,12.7,27.6,N/A,,Partly Cloudy,350,2014-01-22 13:54:00
9:54 AM,7.0,-8.0,51,29.93,10.0,NNW,20.7,26.5,N/A,,Partly Cloudy,330,2014-01-22 14:54:00
10:54 AM,9.0,-6.0,51,29.93,10.0,NNW,19.6,26.5,N/A,,Partly Cloudy,340,2014-01-22 15:54:00
11:54 AM,10.9,-5.1,49,29.91,10.0,NNW,18.4,-,N/A,,Partly Cloudy,330,2014-01-22 16:54:00
12:54 PM,12.9,-5.1,45,29.91,10.0,NW,15.0,24.2,N/A,,Partly Cloudy,320,2014-01-22 17:54:00
1:54 PM,14.0,-2.9,47,29.91,10.0,WNW,16.1,24.2,0.01,,Partly Cloudy,300,2014-01-22 18:54:00
2:54 PM,16.0,-5.1,39,29.93,10.0,WNW,17.3,23.0,N/A,,Partly Cloudy,300,2014-01-22 19:54:00
3:54 PM,16.0,-5.1,39,29.94,10.0,NW,10.4,19.6,N/A,,Partly Cloudy,310,2014-01-22 20:54:00
4:54 PM,16.0,-4.0,41,29.96,10.0,WNW,10.4,19.6,N/A,,Partly Cloudy,300,2014-01-22 21:54:00
5:54 PM,15.1,-4.0,43,29.99,10.0,WNW,9.2,-,N/A,,Clear,290,2014-01-22 22:54:00
6:54 PM,14.0,-5.1,43,30.01,10.0,WNW,9.2,-,N/A,,Clear,290,2014-01-22 23:54:00
7:54 PM,14.0,-5.1,43,30.02,10.0,WNW,10.4,-,N/A,,Clear,290,2014-01-23 00:54:00
8:54 PM,14.0,-5.1,43,30.03,10.0,NW,9.2,-,N/A,,Clear,310,2014-01-23 01:54:00
9:54 PM,14.0,-5.1,43,30.05,10.0,WNW,8.1,-,N/A,,Clear,300,2014-01-23 02:54:00
10:54 PM,10.9,-4.0,51,30.06,10.0,Calm,Calm,-,N/A,,Mostly Cloudy,0,2014-01-23 03:54:00
11:54 PM,10.9,-4.0,51,30.07,10.0,WSW,4.6,-,N/A,,Overcast,240,2014-01-23 04:54:00